[[{"header":{"parameterUnit":"m.s-1","parameterCategory":2,"la1":30.2992,"la2":30.254,"lo1":-89.0895,"lo2":-89.0443,"dy":0.0025,"dx":0.0025,"nx":19,"ny":19,"refTime":"2026-03-21T09:00:00:Z","depth":"0","parameterNumber":2,"parameterNumberName":"U-component_of_CURRENTS"},"data":[0,0,0,0.378,0.3782,0.3918,0.3919,0.4227,0.423,0,0,0,0,0,0,0,0,0,0,0,0.3737,0.3737,0.378,0.3783,0.3918,0.3919,0.4226,0.423,0,0,0,0,0,0,0,0,0,0,0,0.3737,0.3737,0.3738,0.3783,0.3918,0.3919,0.4226,0.4095,0,0,0,0,0,0,0,0,0,0,0.3949,0.387,0.3737,0.3738,0.3784,0.3918,0.3919,0.4088,0.4104,0.4197,0,0.4204,0,0.4218,0.4251,0.4253,0,0,0,0.3805,0.3856,0.3901,0.3738,0.3784,0.3918,0.3863,0.4096,0.4114,0.4218,0.4209,0.4219,0.4223,0.4253,0.4255,0.445,0.445,0,0,0.3798,0.3765,0.3888,0.3911,0.3807,0.3859,0.3867,0.4105,0.4118,0.421,0.4226,0.4228,0.4256,0.4258,0.445,0.445,0,0,0,0.3761,0.3759,0.3795,0.39,0.391,0.3862,0.3872,0.4107,0.4121,0.4229,0.4231,0.4257,0.4261,0.4451,0.445,0.438,0,0,0,0.3757,0.3736,0.3792,0.3774,0.3904,0.3988,0.3868,0.4104,0.4131,0.423,0.4258,0.4265,0.4451,0.4451,0.4383,0.4334,0,0,0,0.3733,0.3734,0.3746,0.3772,0.382,0.3984,0.4012,0.411,0.4133,0.4253,0.4265,0.4451,0.4451,0.4385,0.4339,0.4377,0,0,0,0.3701,0.3697,0.3745,0.3756,0.3819,0.3902,0.401,0.4093,0.4185,0.4259,0.4451,0.445,0.4386,0.4342,0.4379,0.4344,0.4333,0,0,0.3674,0.3693,0.3702,0.3748,0.3791,0.3886,0.3948,0.4108,0.4209,0.4388,0.4392,0.4382,0.4339,0.4377,0.4306,0.4296,0,0,0,0.368,0.3682,0.3706,0.3746,0.3824,0.3884,0.4026,0.4104,0.425,0.4257,0.4388,0.4363,0.439,0.4373,0.4365,0.4307,0.4447,0.4447,0.4447,0.3578,0.3637,0.3643,0.3716,0.3773,0.3903,0.3979,0.4112,0.4224,0.4262,0.4311,0.4294,0.4273,0.4267,0.4206,0.4328,0.4328,0.4327,0.4327,0.3515,0.3508,0.3582,0.3602,0.3688,0.3753,0.3945,0.4034,0.4204,0.4255,0.4287,0.4304,0.4255,0.4193,0.4323,0.4324,0.4324,0.4325,0.4325,0.3424,0.3426,0.3445,0.3483,0.3522,0.3646,0.3742,0.3924,0.4113,0.4166,0.4218,0.4219,0.4166,0.4209,0.4208,0.4208,0.4208,0.4208,0.4208,0.3311,0.3337,0.3318,0.3362,0.3366,0.3433,0.3646,0.3775,0.3995,0.4131,0.4132,0.4139,0.4259,0.4265,0.4207,0.4207,0.4207,0.4208,0.4208,0.3209,0.3223,0.3195,0.3186,0.3207,0.3203,0.342,0.3652,0.3839,0.3932,0.404,0.4145,0.4176,0.4182,0.4187,0.4113,0.4113,0.4113,0.4113,0.3127,0.3139,0.3071,0.3029,0.3025,0.3088,0.3142,0.34,0.3749,0.3892,0.3967,0.3956,0.3963,0.3982,0.3993,0.3995,0.3873,0.3873,0.3873,0.3062,0.3055,0.2964,0.2932,0.2912,0.2943,0.2938,0.3087,0.36,0.3858,0.3888,0.3899,0.3881,0.3896,0.3929,0.3948,0.3954,0,0]},{"header":{"parameterUnit":"m.s-1","parameterCategory":2,"la1":30.2992,"la2":30.254,"lo1":-89.0895,"lo2":-89.0443,"dy":0.0025,"dx":0.0025,"nx":19,"ny":19,"refTime":"2026-03-21T09:00:00:Z","depth":"0","parameterNumber":3,"parameterNumberName":"V-component_of_CURRENTS"},"data":[0,0,0,0.1262,0.1262,0.1285,0.1285,0.1327,0.1327,0,0,0,0,0,0,0,0,0,0,0,0.1266,0.1267,0.1262,0.1262,0.1285,0.1285,0.1327,0.1327,0,0,0,0,0,0,0,0,0,0,0,0.1266,0.1266,0.1267,0.1262,0.1285,0.1285,0.1327,0.1309,0,0,0,0,0,0,0,0,0,0,0.1286,0.1277,0.1266,0.1267,0.1262,0.1285,0.1285,0.1308,0.131,0.1317,0,0.1323,0,0.1316,0.133,0.133,0,0,0,0.1273,0.1275,0.1285,0.1267,0.1262,0.1285,0.1278,0.1309,0.1312,0.1319,0.1324,0.1325,0.1317,0.133,0.133,0.1468,0.147,0,0,0.1271,0.1267,0.1284,0.1287,0.1272,0.1277,0.1278,0.1311,0.1313,0.1324,0.1325,0.1318,0.133,0.133,0.1467,0.1469,0,0,0,0.126,0.1266,0.1275,0.1285,0.1283,0.1277,0.1279,0.1312,0.1316,0.1326,0.1318,0.133,0.1331,0.1466,0.1468,0.1578,0,0,0,0.126,0.1259,0.1275,0.1272,0.1282,0.1293,0.1279,0.1314,0.1317,0.1318,0.133,0.1331,0.1464,0.1467,0.1572,0.1624,0,0,0,0.1265,0.1259,0.1264,0.1271,0.1275,0.1292,0.1298,0.1315,0.1311,0.133,0.1331,0.1463,0.1466,0.1566,0.1615,0.1673,0,0,0,0.1256,0.1293,0.1264,0.1314,0.1275,0.1365,0.1298,0.1363,0.1393,0.133,0.1465,0.1468,0.1564,0.1609,0.1668,0.167,0.1695,0,0,0.1305,0.1298,0.1334,0.1309,0.1408,0.1362,0.1465,0.1465,0.1438,0.1453,0.1456,0.1574,0.1614,0.1672,0.1846,0.1866,0,0,0,0.1353,0.1378,0.1405,0.1449,0.1493,0.1549,0.1544,0.1544,0.1583,0.1463,0.1605,0.1628,0.166,0.1651,0.1668,0.1381,0.1482,0.1481,0.1481,0.1405,0.1443,0.1524,0.1582,0.1638,0.1688,0.1734,0.1735,0.1685,0.1732,0.1741,0.1893,0.1888,0.19,0.1605,0.1765,0.1765,0.1765,0.1766,0.1497,0.1543,0.1606,0.169,0.1757,0.1835,0.1899,0.1889,0.1952,0.1882,0.1907,0.1797,0.1925,0.1603,0.1773,0.1772,0.1771,0.177,0.177,0.1531,0.1557,0.1612,0.1729,0.1841,0.1909,0.203,0.2059,0.2054,0.2108,0.2065,0.2062,0.1756,0.2111,0.2112,0.2112,0.2113,0.2113,0.2113,0.1521,0.1585,0.1654,0.1769,0.1847,0.1973,0.2117,0.2185,0.2226,0.22,0.2199,0.1786,0.1998,0.1957,0.2122,0.212,0.2119,0.2118,0.2118,0.1537,0.1555,0.1655,0.1734,0.1932,0.2086,0.2211,0.234,0.2383,0.2395,0.1943,0.2239,0.2198,0.2183,0.2147,0.2351,0.2351,0.2351,0.2351,0.1519,0.1545,0.1664,0.1796,0.1976,0.2143,0.2344,0.2456,0.2233,0.2032,0.1875,0.1749,0.1752,0.1675,0.1672,0.1621,0.1686,0.1685,0.1684,0.1514,0.1553,0.1633,0.1782,0.1999,0.2211,0.2397,0.2494,0.2044,0.1623,0.1476,0.1504,0.128,0.1308,0.1154,0.1172,0.1077,0,0]}],[{"header":{"parameterUnit":"m.s-1","parameterCategory":2,"la1":30.2992,"la2":30.254,"lo1":-89.0895,"lo2":-89.0443,"dy":0.0025,"dx":0.0025,"nx":19,"ny":19,"refTime":"2026-03-21T09:00:00:Z","depth":"2","parameterNumber":2,"parameterNumberName":"U-component_of_CURRENTS"},"data":[0,0,0,0.1614,0.1618,0.1877,0.1878,0.2138,0.214,0,0,0,0,0,0,0,0,0,0,0,0.1541,0.1542,0.1614,0.1619,0.1877,0.1878,0.2138,0.214,0,0,0,0,0,0,0,0,0,0,0,0.154,0.1542,0.1544,0.162,0.1876,0.1878,0.2138,0.197,0,0,0,0,0,0,0,0,0,0,0.1732,0.1668,0.1542,0.1544,0.1621,0.1876,0.1879,0.1963,0.198,0.1989,0,0.2022,0,0.2062,0.2152,0.2153,0,0,0,0.1658,0.1654,0.1705,0.1544,0.1623,0.1875,0.1771,0.1974,0.1993,0.2011,0.2026,0.2036,0.2066,0.2153,0.2154,0.2325,0.2325,0,0,0.1644,0.161,0.1692,0.1717,0.1679,0.1763,0.1779,0.1987,0.2011,0.2027,0.2043,0.207,0.2155,0.2156,0.2324,0.2325,0,0,0,0.1576,0.16,0.1649,0.1706,0.1744,0.1769,0.1788,0.2003,0.2014,0.2046,0.2073,0.2156,0.2158,0.2324,0.2325,0.2387,0,0,0,0.157,0.1557,0.1642,0.1628,0.174,0.1887,0.1799,0.2001,0.2025,0.2072,0.2156,0.216,0.2323,0.2324,0.2384,0.2374,0,0,0,0.1531,0.1554,0.1576,0.1625,0.1715,0.1884,0.1912,0.2008,0.2039,0.2153,0.216,0.2323,0.2324,0.2382,0.2371,0.2418,0,0,0,0.1498,0.1536,0.1576,0.1648,0.1712,0.1855,0.1911,0.2067,0.2171,0.2157,0.2323,0.2324,0.2381,0.2369,0.2416,0.2301,0.2303,0,0,0.152,0.1538,0.1583,0.1624,0.1738,0.1823,0.1969,0.2139,0.2183,0.2255,0.2261,0.2385,0.237,0.2417,0.2369,0.2369,0,0,0,0.1574,0.1601,0.1647,0.1731,0.1833,0.1954,0.21,0.2164,0.2311,0.224,0.2392,0.2379,0.2408,0.2334,0.2334,0.233,0.233,0.233,0.233,0.155,0.162,0.1698,0.1799,0.1896,0.2069,0.2177,0.2283,0.2335,0.2411,0.2438,0.2518,0.2441,0.244,0.2465,0.2465,0.2465,0.2465,0.2466,0.1569,0.161,0.1722,0.1824,0.1952,0.2086,0.2263,0.2347,0.2485,0.2491,0.2517,0.241,0.2443,0.2471,0.247,0.2469,0.2468,0.2468,0.2468,0.1536,0.1559,0.165,0.1784,0.1936,0.2105,0.2241,0.2396,0.2515,0.2573,0.2515,0.2512,0.2542,0.262,0.262,0.262,0.2621,0.2621,0.2621,0.1448,0.1533,0.1588,0.1738,0.1828,0.1996,0.2244,0.2353,0.2497,0.2546,0.2545,0.257,0.2565,0.255,0.2624,0.2623,0.2623,0.2623,0.2622,0.1368,0.1416,0.1481,0.1557,0.1744,0.1829,0.207,0.2269,0.2407,0.2441,0.2528,0.2529,0.2491,0.2488,0.2471,0.2521,0.2521,0.2521,0.2521,0.1283,0.1318,0.1393,0.1474,0.1592,0.1752,0.1812,0.1895,0.2114,0.2148,0.2163,0.2085,0.2099,0.2034,0.2042,0.2013,0.1943,0.1942,0.194,0.1201,0.1254,0.1274,0.14,0.1529,0.1648,0.1617,0.1597,0.1776,0.1911,0.1991,0.2496,0.2422,0.2427,0.2359,0.236,0.2327,0,0]},{"header":{"parameterUnit":"m.s-1","parameterCategory":2,"la1":30.2992,"la2":30.254,"lo1":-89.0895,"lo2":-89.0443,"dy":0.0025,"dx":0.0025,"nx":19,"ny":19,"refTime":"2026-03-21T09:00:00:Z","depth":"2","parameterNumber":3,"parameterNumberName":"V-component_of_CURRENTS"},"data":[0,0,0,-0.0758,-0.0759,-0.0773,-0.0773,-0.0862,-0.0863,0,0,0,0,0,0,0,0,0,0,0,-0.0739,-0.0739,-0.0758,-0.0759,-0.0773,-0.0773,-0.0861,-0.0863,0,0,0,0,0,0,0,0,0,0,0,-0.074,-0.0739,-0.0739,-0.0759,-0.0773,-0.0773,-0.0861,-0.0832,0,0,0,0,0,0,0,0,0,0,-0.0809,-0.0767,-0.0739,-0.0739,-0.0759,-0.0773,-0.0773,-0.083,-0.0834,-0.0876,0,-0.0868,0,-0.0877,-0.087,-0.0871,0,0,0,-0.0755,-0.0763,-0.0786,-0.0739,-0.0759,-0.0773,-0.0766,-0.0832,-0.0836,-0.0882,-0.0869,-0.0872,-0.0879,-0.0871,-0.0872,-0.0886,-0.0885,0,0,-0.0755,-0.073,-0.0783,-0.0789,-0.0752,-0.0765,-0.0766,-0.0834,-0.0825,-0.0869,-0.0874,-0.088,-0.0872,-0.0873,-0.0887,-0.0886,0,0,0,-0.0754,-0.0729,-0.0748,-0.0785,-0.0788,-0.0766,-0.0767,-0.0821,-0.0832,-0.0875,-0.0881,-0.0873,-0.0874,-0.0888,-0.0886,-0.0719,0,0,0,-0.0754,-0.073,-0.0747,-0.0731,-0.0786,-0.0792,-0.0753,-0.0827,-0.0835,-0.0881,-0.0873,-0.0875,-0.0888,-0.0887,-0.0725,-0.0623,0,0,0,-0.0741,-0.0728,-0.073,-0.073,-0.0741,-0.0791,-0.0804,-0.0828,-0.084,-0.0871,-0.0875,-0.0889,-0.0887,-0.0731,-0.0634,-0.0556,0,0,0,-0.0716,-0.0681,-0.0729,-0.0688,-0.0741,-0.0725,-0.0804,-0.0794,-0.0808,-0.0873,-0.0888,-0.0887,-0.0733,-0.0641,-0.0563,-0.0585,-0.0555,0,0,-0.0657,-0.0673,-0.065,-0.0693,-0.0648,-0.0724,-0.0669,-0.0724,-0.0801,-0.0873,-0.0873,-0.0723,-0.0635,-0.0558,-0.0487,-0.046,0,0,0,-0.0622,-0.0601,-0.0597,-0.0581,-0.06,-0.0574,-0.0644,-0.0673,-0.0698,-0.0805,-0.0736,-0.0685,-0.0642,-0.067,-0.0648,-0.0878,-0.0879,-0.0879,-0.0879,-0.0511,-0.0521,-0.0457,-0.0462,-0.045,-0.0476,-0.0462,-0.0517,-0.0617,-0.0594,-0.0559,-0.0395,-0.0424,-0.0408,-0.0588,-0.0587,-0.0587,-0.0586,-0.0586,-0.0403,-0.0354,-0.0344,-0.0285,-0.0274,-0.0236,-0.0279,-0.0325,-0.0314,-0.042,-0.0388,-0.0504,-0.0375,-0.0573,-0.0575,-0.0577,-0.0579,-0.058,-0.058,-0.0331,-0.0297,-0.0259,-0.0157,-0.0064,-0.0071,0.0025,-0.0041,-0.0137,-0.0092,-0.0162,-0.0166,-0.028,-0.0079,-0.0078,-0.0077,-0.0077,-0.0076,-0.0075,-0.026,-0.0217,-0.0115,-0.0023,0.0068,0.0182,0.0209,0.022,0.015,0.0041,0.0039,-0.0224,-0.0241,-0.0252,-0.0063,-0.0065,-0.0067,-0.0068,-0.0069,-0.0152,-0.0137,0.001,0.0108,0.0314,0.0476,0.0468,0.0478,0.0441,0.0413,0.0085,0.0077,0.0021,0.0,-0.0007,0.0235,0.0235,0.0235,0.0235,-0.0075,-0.0062,0.0158,0.0328,0.0518,0.0624,0.0744,0.06,0.0408,0.0223,0.0223,0.0094,0.0082,0.0019,-0.0002,-0.0014,0.0227,0.0227,0.0227,0.0019,0.0067,0.0249,0.0407,0.0619,0.0797,0.0854,0.0704,0.0412,0.0225,0.0204,0.0238,0.004,0.0025,-0.0088,-0.0115,-0.0142,0,0]}],[{"header":{"parameterUnit":"m.s-1","parameterCategory":2,"la1":30.2992,"la2":30.254,"lo1":-89.0895,"lo2":-89.0443,"dy":0.0025,"dx":0.0025,"nx":19,"ny":19,"refTime":"2026-03-21T09:00:00:Z","depth":"4","parameterNumber":2,"parameterNumberName":"U-component_of_CURRENTS"},"data":[0,0,0,0.068,0.0683,0.0827,0.0827,0.0886,0.0886,0,0,0,0,0,0,0,0,0,0,0,0.0635,0.0637,0.0679,0.0683,0.0827,0.0827,0.0885,0.0886,0,0,0,0,0,0,0,0,0,0,0,0.0635,0.0636,0.0638,0.0684,0.0827,0.0827,0.0885,0.0807,0,0,0,0,0,0,0,0,0,0,0.0682,0.0653,0.0636,0.0638,0.0685,0.0827,0.0827,0.0804,0.0812,0.0786,0,0.0825,0,0.0855,0.0887,0.0887,0,0,0,0.0677,0.0647,0.0695,0.0638,0.0686,0.0826,0.076,0.0809,0.0817,0.0795,0.0827,0.083,0.0856,0.0887,0.0888,0.0962,0.0963,0,0,0.0669,0.0647,0.069,0.0701,0.0743,0.0756,0.0765,0.0816,0.0823,0.0827,0.0832,0.0857,0.0888,0.0888,0.0962,0.0963,0,0,0,0.065,0.0641,0.069,0.0697,0.0733,0.076,0.0771,0.0821,0.0842,0.0833,0.0857,0.0888,0.0888,0.0961,0.0962,0.1012,0,0,0,0.0645,0.0631,0.0687,0.0672,0.0733,0.0794,0.0775,0.0838,0.0845,0.0857,0.0888,0.0888,0.096,0.0962,0.1009,0.1002,0,0,0,0.0625,0.0628,0.0653,0.0671,0.0737,0.0795,0.0818,0.0841,0.0859,0.0887,0.0888,0.096,0.0961,0.1006,0.0998,0.1029,0,0,0,0.0583,0.0614,0.0653,0.0693,0.0736,0.0823,0.0818,0.0881,0.0911,0.0888,0.0961,0.0962,0.1005,0.0996,0.1026,0.0901,0,0,0,0.0591,0.0615,0.0637,0.0675,0.0746,0.0801,0.087,0.0909,0.0922,0.0932,0.0935,0.101,0.0998,0.1028,0.0993,0,0,0,0,0.0618,0.0644,0.0669,0.0727,0.0793,0.0868,0.0922,0.0944,0.1001,0.0949,0.1027,0.1018,0.1035,0.0957,0.097,0.0969,0.0969,0.0969,0.0969,0.061,0.0649,0.0696,0.0765,0.0825,0.0918,0.0966,0.1012,0.1026,0.107,0.1073,0.1144,0.1067,0.1104,0.1104,0.1104,0.1105,0.1105,0.1105,0.0618,0.064,0.0716,0.0776,0.0864,0.0941,0.1028,0.1062,0.1123,0.1125,0.1141,0.1033,0.111,0.1109,0.1108,0.1108,0.1107,0.1107,0.1107,0.0593,0.0607,0.0667,0.0759,0.0864,0.0969,0.1042,0.1113,0.1161,0.1187,0.1125,0.1173,0.1151,0.1225,0.1225,0.1226,0.1226,0.1226,0.1226,0.0528,0.0586,0.063,0.0741,0.081,0.0924,0.1064,0.1107,0.1184,0.1149,0.1218,0.1184,0.118,0.1158,0.1228,0.1227,0.1227,0.1227,0.1227,0.0471,0.0508,0.056,0.0621,0.0761,0.0832,0.0984,0.1077,0.1112,0.1111,0.1123,0.1128,0.1091,0.1089,0.1062,0.1105,0.1104,0.1103,0,0.0422,0.0445,0.0508,0.0571,0.0652,0.0772,0.083,0.0926,0.0999,0.0966,0.1082,0.1091,0.1095,0.1047,0.1044,0.1008,0,0,0,0.0382,0.0413,0.0442,0.0525,0.0602,0.0719,0.0849,0.086,0.0991,0.1013,0.1068,0.1077,0.1159,0.1234,0.1188,0.1183,0.1144,0,0]},{"header":{"parameterUnit":"m.s-1","parameterCategory":2,"la1":30.2992,"la2":30.254,"lo1":-89.0895,"lo2":-89.0443,"dy":0.0025,"dx":0.0025,"nx":19,"ny":19,"refTime":"2026-03-21T09:00:00:Z","depth":"4","parameterNumber":3,"parameterNumberName":"V-component_of_CURRENTS"},"data":[0,0,0,-0.0106,-0.0108,-0.0238,-0.0238,-0.0375,-0.0376,0,0,0,0,0,0,0,0,0,0,0,-0.0073,-0.0074,-0.0105,-0.0108,-0.0238,-0.0238,-0.0375,-0.0376,0,0,0,0,0,0,0,0,0,0,0,-0.0073,-0.0074,-0.0075,-0.0109,-0.0238,-0.0238,-0.0374,-0.0286,0,0,0,0,0,0,0,0,0,0,-0.0165,-0.0135,-0.0074,-0.0075,-0.0109,-0.0237,-0.0238,-0.0282,-0.0292,-0.0305,0,-0.0333,0,-0.0348,-0.0383,-0.0384,0,0,0,-0.0117,-0.0127,-0.016,-0.0076,-0.011,-0.0237,-0.0182,-0.0288,-0.0298,-0.0317,-0.0335,-0.034,-0.0351,-0.0384,-0.0385,-0.0465,-0.0465,0,0,-0.011,-0.0098,-0.0153,-0.0167,-0.0155,-0.0178,-0.0186,-0.0295,-0.0311,-0.0336,-0.0344,-0.0353,-0.0385,-0.0386,-0.0465,-0.0465,0,0,0,-0.0084,-0.0093,-0.0124,-0.0161,-0.0182,-0.0181,-0.0191,-0.0306,-0.0316,-0.0345,-0.0354,-0.0386,-0.0387,-0.0465,-0.0465,-0.0425,0,0,0,-0.008,-0.0077,-0.0121,-0.0115,-0.018,-0.0249,-0.02,-0.0309,-0.0322,-0.0354,-0.0386,-0.0388,-0.0465,-0.0465,-0.0426,-0.0377,0,0,0,-0.0065,-0.0075,-0.0093,-0.0114,-0.0164,-0.0247,-0.0265,-0.0313,-0.0327,-0.0384,-0.0388,-0.0465,-0.0465,-0.0426,-0.038,-0.0379,0,0,0,-0.0044,-0.0064,-0.0093,-0.0108,-0.0163,-0.0203,-0.0264,-0.0308,-0.0351,-0.0386,-0.0465,-0.0465,-0.0427,-0.0382,-0.0381,-0.0321,0,0,0,-0.0048,-0.0065,-0.0066,-0.0094,-0.0115,-0.0185,-0.0217,-0.0303,-0.0358,-0.0429,-0.0431,-0.0425,-0.038,-0.038,-0.0326,0,0,0,0,-0.005,-0.0057,-0.0066,-0.0089,-0.0127,-0.0176,-0.0255,-0.0297,-0.038,-0.0385,-0.0438,-0.041,-0.0412,-0.0382,-0.0465,-0.0465,-0.0465,-0.0465,-0.0465,-0.0046,-0.0048,-0.0051,-0.0071,-0.0101,-0.0174,-0.0213,-0.0291,-0.0351,-0.0384,-0.0388,-0.0369,-0.0338,-0.0418,-0.0417,-0.0417,-0.0417,-0.0417,-0.0417,-0.0023,-0.0016,-0.0031,-0.0034,-0.0081,-0.0118,-0.02,-0.025,-0.0313,-0.0362,-0.0367,-0.0354,-0.0413,-0.0414,-0.0415,-0.0415,-0.0415,-0.0416,-0.0416,-0.0007,-0.0004,-0.0004,-0.0005,-0.0031,-0.0087,-0.0102,-0.0176,-0.0263,-0.0267,-0.027,-0.034,-0.0332,-0.0293,-0.0293,-0.0293,-0.0292,-0.0292,-0.0292,0.0011,0.0013,0.0027,0.0025,0.0022,0.0007,-0.005,-0.0081,-0.017,-0.0196,-0.0262,-0.0327,-0.0331,-0.0326,-0.0289,-0.0289,-0.029,-0.029,-0.029,0.0035,0.0033,0.0061,0.0068,0.0081,0.008,0.0041,-0.0012,-0.0042,-0.0084,-0.0172,-0.0179,-0.0186,-0.0193,-0.0183,-0.0102,-0.0101,-0.01,0,0.0048,0.0051,0.0084,0.0105,0.0129,0.0116,0.0118,0.0075,-0.0024,-0.0023,-0.0075,-0.0173,-0.0179,-0.0187,-0.0192,-0.0179,0,0,0,0.0066,0.0075,0.0092,0.0111,0.014,0.0131,0.0115,0.0099,0.0001,-0.0008,-0.0077,-0.0083,-0.0185,-0.0279,-0.0306,-0.0311,-0.0303,0,0]}]]